Date String (YYYY-MM-DD hh:mm:ss) UTC,Instrument flags,absolute air pressure of the measurement (hPa),sample flow rate (lpm),inlet stack bypass flow (lpm),air temperature of the measurement (°C),ambient temperature measured by the external sensor (°C),aerosol sample conditioner tube jacket temperature (°C),OPC LED temperature (°C),internal box temperature (°C),relative humidity of the measurement (%),span deviation,mass concentration of particles derived from Lorenz-Mie calculation of OPC scattering (μg/m³),mass concentration of particles derived from Lorenz-Mie calculation of OPC scattering (μg/m³),mass concentration of particles derived from Lorenz-Mie calculation of OPC scattering (μg/m³)
DateTimeUTC,F1_M11,P_M11,Q1_M11,Q2_M11,T1_M11,T2_M11,T3_M11,T4_M11,T5_M11,U1_M11,ZSPAN_M11,X0_M11,X2_M11,X1_M11
2023-07-26 18:00:00,SystemResetWarning,0834.4,4.99,000.00,028.6,025.7,000.0,036.8,030.0,29.0,0000.0,0008.42,0003.88,0003.07
2023-07-26 18:01:00,SystemResetWarning,0834.3,5.00,000.00,028.6,026.1,000.0,036.9,030.1,29.2,0000.0,0008.32,0003.89,0003.05
2023-07-26 18:02:00,SystemResetWarning,0834.4,5.01,000.00,028.6,026.5,000.0,036.9,030.2,28.3,0000.0,0007.97,0003.85,0003.03
2023-07-26 18:03:00,SystemResetWarning,0834.4,5.00,000.00,028.7,026.9,000.0,036.9,030.3,29.9,0000.0,0007.74,0003.82,0003.02
2023-07-26 18:04:00,SystemResetWarning,0834.4,5.00,000.00,028.7,027.3,000.0,036.9,030.4,29.7,0000.0,0007.82,0003.86,0003.03
2023-07-26 18:05:00,SystemResetWarning,0834.3,4.99,000.00,028.7,026.8,000.0,036.9,030.4,28.9,0000.0,0007.74,0003.86,0003.02
2023-07-26 18:06:00,SystemResetWarning,0834.4,5.00,000.00,028.7,025.4,000.0,036.8,030.1,28.7,0000.0,0007.73,0003.83,0003.02
2023-07-26 18:07:00,SystemResetWarning,0834.4,5.01,000.00,028.6,025.2,000.0,036.8,030.0,28.1,0000.0,0007.90,0003.80,0003.00
2023-07-26 18:08:00,SystemResetWarning,0834.3,5.01,000.00,028.6,025.6,000.0,036.8,030.0,27.8,0000.0,0008.48,0003.80,0002.99
2023-07-26 18:09:00,SystemResetWarning,0834.3,5.00,000.00,028.6,026.0,000.0,036.8,030.0,26.1,0000.0,0008.53,0003.79,0002.97
2023-07-26 18:10:00,SystemResetWarning,0834.4,4.99,000.00,028.6,026.4,000.0,036.9,030.2,24.8,0000.0,0008.66,0003.82,0002.99
2023-07-26 18:11:00,SystemResetWarning,0834.3,5.00,000.00,028.6,026.8,000.0,036.9,030.3,23.6,0000.0,0008.44,0003.78,0002.99
2023-07-26 18:12:00,SystemResetWarning,0834.3,5.01,000.00,028.7,027.2,000.0,036.9,030.4,23.0,0000.0,0008.33,0003.76,0002.98
2023-07-26 18:13:00,SystemResetWarning,0834.5,4.98,000.00,028.7,026.6,000.0,036.9,030.3,23.1,0000.0,0008.29,0003.73,0002.97
2023-07-26 18:14:00,SystemResetWarning,0834.3,5.00,000.00,028.7,025.3,000.0,036.8,030.2,24.2,0000.0,0008.68,0003.73,0002.97
2023-07-26 18:15:00,SystemResetWarning,0834.4,5.02,000.00,028.6,025.2,000.0,036.7,030.1,24.3,0000.0,0008.87,0003.68,0002.96
2023-07-26 18:16:00,SystemResetWarning,0834.4,4.99,000.00,028.6,025.5,000.0,036.8,030.0,22.4,0000.0,0009.45,0003.69,0002.97
2023-07-26 18:17:00,SystemResetWarning,0834.2,5.00,000.00,028.5,026.0,000.0,036.8,030.0,23.2,0000.0,0010.26,0003.69,0002.98
2023-07-26 18:18:00,SystemResetWarning,0834.2,5.01,000.00,028.6,026.4,000.0,036.9,030.1,23.8,0000.0,0010.05,0003.69,0003.01
2023-07-26 18:19:00,SystemResetWarning,0834.1,5.01,000.00,028.6,026.8,000.0,036.9,030.2,21.8,0000.0,0009.43,0003.71,0003.04
2023-07-26 18:20:00,SystemResetWarning,0834.2,5.00,000.00,028.7,027.1,000.0,036.9,030.3,23.3,0000.0,0009.35,0003.70,0003.05
2023-07-26 18:21:00,SystemResetWarning,0834.4,4.98,000.00,028.7,027.3,000.0,036.9,030.4,22.8,0000.0,0009.34,0003.71,0003.05
2023-07-26 18:22:00,SystemResetWarning,0834.2,5.00,000.00,028.7,026.1,000.0,036.8,030.3,22.3,0000.0,0009.50,0003.73,0003.06
2023-07-26 18:23:00,SystemResetWarning,0834.2,5.00,000.00,028.7,025.3,000.0,036.8,030.2,23.3,0000.0,0009.68,0003.75,0003.08
2023-07-26 18:24:00,SystemResetWarning,0834.2,5.01,000.00,028.6,025.6,000.0,036.8,030.2,22.8,0000.0,0009.84,0003.77,0003.07
2023-07-26 18:25:00,SystemResetWarning,0834.2,5.01,000.00,028.6,025.9,000.0,036.8,030.1,23.0,0000.0,0009.52,0003.75,0003.02
2023-07-26 18:26:00,SystemResetWarning,0834.1,4.99,000.00,028.6,026.3,000.0,036.9,030.2,23.0,0000.0,0009.00,0003.71,0002.95
2023-07-26 18:27:00,SystemResetWarning,0834.1,5.00,000.00,028.6,026.7,000.0,036.9,030.3,22.6,0000.0,0008.29,0003.63,0002.86
2023-07-26 18:28:00,SystemResetWarning,0834.1,5.01,000.00,028.7,027.1,000.0,036.9,030.4,22.6,0000.0,0007.33,0003.56,0002.77
2023-07-26 18:29:00,SystemResetWarning,0834.1,5.00,000.00,028.7,026.7,000.0,036.9,030.3,21.7,0000.0,0007.13,0003.49,0002.66
2023-07-26 18:30:00,SystemResetWarning,0834.0,4.98,000.00,028.7,025.3,000.0,036.8,030.1,23.0,0000.0,0007.44,0003.39,0002.56
2023-07-26 18:31:00,SystemResetWarning,0833.9,5.01,000.00,028.6,025.3,000.0,036.8,030.1,23.2,0000.0,0007.71,0003.38,0002.48
2023-07-26 18:32:00,SystemResetWarning,0833.9,5.01,000.00,028.6,025.7,000.0,036.8,030.0,23.7,0000.0,0007.56,0003.32,0002.40
2023-07-26 18:33:00,SystemResetWarning,0833.9,4.99,000.00,028.6,026.1,000.0,036.8,030.1,22.7,0000.0,0007.27,0003.26,0002.30
2023-07-26 18:34:00,SystemResetWarning,0833.9,5.00,000.00,028.6,026.5,000.0,036.9,030.2,22.5,0000.0,0007.17,0003.22,0002.20
2023-07-26 18:35:00,SystemResetWarning,0833.9,5.01,000.00,028.6,026.9,000.0,036.9,030.3,21.5,0000.0,0006.86,0003.18,0002.14
2023-07-26 18:36:00,SystemResetWarning,0833.9,4.99,000.00,028.7,027.2,000.0,036.9,030.4,22.1,0000.0,0006.92,0003.16,0002.10
2023-07-26 18:37:00,SystemResetWarning,0833.9,4.98,000.00,028.7,026.7,000.0,036.9,030.4,22.3,0000.0,0007.02,0003.15,0002.08
2023-07-26 18:38:00,SystemResetWarning,0833.9,5.01,000.00,028.7,025.4,000.0,036.8,030.2,21.1,0000.0,0007.25,0003.17,0002.09
2023-07-26 18:39:00,SystemResetWarning,0833.8,5.01,000.00,028.7,025.4,000.0,036.8,030.2,21.9,0000.0,0007.35,0003.22,0002.10
2023-07-26 18:40:00,SystemResetWarning,0833.8,5.00,000.00,028.6,025.8,000.0,036.8,030.1,21.7,0000.0,0007.51,0003.21,0002.09
2023-07-26 18:41:00,SystemResetWarning,0833.8,4.99,000.00,028.6,026.1,000.0,036.8,030.1,22.2,0000.0,0008.37,0003.26,0002.08
2023-07-26 18:42:00,SystemResetWarning,0833.8,5.00,000.00,028.6,026.6,000.0,036.9,030.3,22.3,0000.0,0014.04,0003.50,0002.10
2023-07-26 18:43:00,SystemResetWarning,0833.8,5.00,000.00,028.7,027.0,000.0,036.9,030.4,22.5,0000.0,0014.33,0003.51,0002.10
2023-07-26 18:44:00,SystemResetWarning,0833.8,5.01,000.00,028.7,027.3,000.0,036.9,030.5,22.9,0000.0,0014.34,0003.53,0002.12
2023-07-26 18:45:00,SystemResetWarning,0833.8,5.00,000.00,028.8,026.8,000.0,036.9,030.4,20.0,0000.0,0014.28,0003.54,0002.13
2023-07-26 18:46:00,SystemResetWarning,0833.7,4.99,000.00,028.7,025.4,000.0,036.8,030.3,20.6,0000.0,0014.32,0003.52,0002.14
2023-07-26 18:47:00,SystemResetWarning,0833.7,5.01,000.00,028.7,025.4,000.0,036.8,030.2,20.7,0000.0,0014.22,0003.49,0002.14
2023-07-26 18:48:00,SystemResetWarning,0833.7,5.01,000.00,028.6,025.8,000.0,036.8,030.1,21.4,0000.0,0014.95,0003.51,0002.15
2023-07-26 18:49:00,SystemResetWarning,0833.7,4.99,000.00,028.6,026.1,000.0,036.9,030.2,20.9,0000.0,0014.98,0003.50,0002.15
2023-07-26 18:50:00,SystemResetWarning,0833.6,5.00,000.00,028.7,026.5,000.0,036.9,030.2,22.3,0000.0,0014.82,0003.43,0002.13
2023-07-26 18:51:00,SystemResetWarning,0833.5,5.01,000.00,028.7,026.9,000.0,036.9,030.4,20.8,0000.0,0014.63,0003.43,0002.13
2023-07-26 18:52:00,SystemResetWarning,0833.5,5.00,000.00,028.7,027.0,000.0,037.0,030.4,22.0,0000.0,0013.56,0003.40,0002.13
2023-07-26 18:53:00,SystemResetWarning,0833.4,4.98,000.00,028.7,025.9,000.0,036.9,030.2,22.6,0000.0,0007.45,0003.13,0002.10
2023-07-26 18:54:00,SystemResetWarning,0833.4,5.01,000.00,028.6,025.2,000.0,036.8,030.1,21.4,0000.0,0007.03,0003.12,0002.09
2023-07-26 18:55:00,SystemResetWarning,0833.4,5.01,000.00,028.6,025.6,000.0,036.8,030.1,20.9,0000.0,0007.85,0003.13,0002.08
2023-07-26 18:56:00,SystemResetWarning,0833.4,4.99,000.00,028.6,026.0,000.0,036.8,030.1,20.9,0000.0,0007.89,0003.13,0002.08
2023-07-26 18:57:00,SystemResetWarning,0833.4,5.00,000.00,028.6,026.4,000.0,036.9,030.2,21.4,0000.0,0007.80,0003.13,0002.08
2023-07-26 18:58:00,SystemResetWarning,0833.4,5.01,000.00,028.7,026.8,000.0,036.9,030.3,21.4,0000.0,0007.77,0003.13,0002.07
2023-07-26 18:59:00,SystemResetWarning,0833.4,5.00,000.00,028.7,027.2,000.0,036.9,030.4,20.7,0000.0,0006.84,0003.09,0002.07
